www.pogodaiklimat.ru

Погода и климат >> Архив погоды >> Самоа >> Faleolo Int East


ПОГОДА в Faleolo Int East

  • Прогноз погоды в Faleolo Int East
  • Монитор погоды в Faleolo Int East
  • Климат города

АРХИВ ПОГОДЫ в Faleolo Int East

Время (UTC), дата Ветер
(напр.,м/с)
 
Видим.   Явления Облачность Т
(С)
Тd
(С)
f
(%)
Тe
(С)
Тes
(С)
Комфортность P
(гПа)
Po
(гПа)
Тmin
(С)
Tmax
(С)
R
(мм)
R24
(мм)
S
(см)
21 18.06 0 16 км н/о +30.4 +23.2 65 1015.2 1014.1
00 19.06 0 16 км н/о +30.0 +24.1 71 1013.2 1012.1 +25.0
03 19.06 0 16 км н/о +27.5 +25.7 90 1012.3 1011.2
06 19.06 0 14 км н/о +25.9 +25.4 97 1013.1 1012.0
09 19.06 0 16 км н/о +23.5 +23.2 98 1014.6 1013.5
12 19.06 0 16 км н/о +22.9 +22.7 99 1014.1 1013.0 +30.9
15 19.06 0 16 км н/о +23.0 +22.7 98 1013.1 1012.0
18 19.06 0 16 км н/о +23.2 +22.7 97 1014.3 1013.2
21 19.06 0 16 км н/о +30.2 +25.7 77 1015.8 1014.7
00 20.06 0 16 км н/о +32.1 +26.3 72 1014.1 1013.0 +22.3
03 20.06 0 16 км н/о +32.1 +26.3 72 1014.1 1013.0 +22.3
06 20.06 0 11 км н/о +25.9 +24.7 93 1013.6 1012.5
12 20.06 0 16 км н/о +24.3 +22.5 90 1014.4 1013.3 +32.2
15 20.06 0 16 км н/о +24.3 +22.3 89 1012.8 1011.7
18 20.06 0 16 км н/о +24.4 +23.2 93 1013.2 1012.1
21 20.06 0 16 км н/о +30.3 +24.8 72 1014.2 1013.1
00 21.06 0 16 км н/о +32.2 +26.7 73 1012.8 1011.7 +22.4
03 21.06 0 1600 м н/о +27.4 +25.0 87 1010.9 1009.8
06 21.06 0 16 км н/о +25.6 +25.1 97 1011.9 1010.8
09 21.06 0 16 км н/о +24.1 +23.9 99 1012.8 1011.7
12 21.06 0 16 км н/о +24.7 +24.4 98 1011.8 1010.7 +32.4
15 21.06 0 16 км н/о +25.5 +24.3 93 1011.0 1009.9
18 21.06 0 16 км н/о +24.9 +24.9 100 1012.0 1010.9
00 22.06 0 16 км н/о +32.3 +27.5 76 1012.1 1011.0 +23.0
03 22.06 0 16 км н/о +32.0 +26.7 74 1010.3 1009.2
06 22.06 0 13 км н/о +27.5 +25.1 87 1011.7 1010.6
12 22.06 0 2900 м н/о +25.2 +24.5 96 1013.4 1012.3 +33.0
15 22.06 0 16 км н/о +25.0 +24.8 99 1011.8 1010.7
18 22.06 0 16 км н/о +24.6 +24.1 97 1012.9 1011.8
21 22.06 0 16 км н/о +29.9 +26.0 80 1014.4 1013.3
00 23.06 0 16 км н/о +31.1 +26.5 77 1012.8 1011.7 +24.1
03 23.06 0 16 км н/о +31.9 +25.9 71 1010.9 1009.8
06 23.06 0 12 км н/о +26.8 +25.4 92 1012.3 1011.2
09 23.06 0 16 км н/о +26.0 +24.9 94 1013.9 1012.8
12 23.06 0 16 км н/о +24.9 +24.6 98 1013.2 1012.1 +32.3
15 23.06 0 16 км н/о +25.0 +24.5 97 1011.9 1010.8
18 23.06 0 13 км н/о +24.2 +24.0 99 1013.3 1012.2
21 23.06 0 16 км н/о +29.8 +25.7 79 1015.2 1014.1
00 24.06 0 16 км н/о +31.7 +26.4 74 1013.5 1012.4 +24.5
03 24.06 0 16 км н/о +31.5 +26.0 73 1011.5 1010.4
06 24.06 0 12 км н/о +26.6 +25.5 94 1013.0 1011.9
12 24.06 0 16 км н/о +24.1 +23.8 98 1014.1 1013.0 +32.3
18 24.06 0 16 км н/о +22.9 +22.7 99 1013.6 1012.5
21 24.06 0 16 км н/о +29.8 +26.8 84 1015.1 1014.0
00 25.06 0 16 км н/о +32.7 +26.4 70 1013.4 1012.3 +24.1
03 25.06 0 16 км н/о +31.8 +25.8 71 1012.0 1010.9
06 25.06 0 12 км н/о +26.2 +25.1 94 1013.2 1012.1
09 25.06 0 16 км н/о +24.1 +23.4 96 1014.3 1013.2
12 25.06 0 15 км н/о +23.7 +23.0 96 1014.1 1013.0 +32.3
15 25.06 0 16 км н/о +22.7 +22.5 99 1012.3 1011.2
18 25.06 0 16 км н/о +22.3 +22.1 99 1013.3 1012.2

 

Местоположение метеостанции Faleolo Int East (Самоа): широта -13.83 долгота -171.99 высота над уровнем моря 10 м.

В архиве по умолчанию представлена погода в Faleolo Int East за последнюю неделю. Архивные данные за месяц целиком и за предыдущие месяцы, начиная с января 2011 года, Вы можете получить, выбрав интересующий диапазон дат из раскрывающегося списка и нажав кнопку "Ввод!".


*Определитесь, кто Вы:
робот инопланетянин человек

Внимание! Время в таблицах - всемирное. Для получения местного времени необходимо прибавить поправку, которая в Faleolo Int East равна 13 ч.

Смотрите также архив погоды в соседних городах и на ближайших метеорологических станциях:

Погода в Faleolo Int Airport (Американское Самоа) (2 км)
Погода в Faleolo Int Airport (Самоа) (3 км)
Погода в Manono (Самоа) (13 км)
Погода в Maota Int Airport (Самоа) (31 км)
Погода в Apia (Американское Самоа) (32 км)
Погода в Togitogiga (Самоа) (33 км)
Погода в Le Mafa (Самоа) (45 км)
Погода в Lufi-Lufi (Самоа) (47 км)
Погода в Le Piu Tai (Самоа) (60 км)
Погода в Mount Talu (Самоа) (84 км)

Пояснения к столбцам:

Ветер - указаны скорость ветра в м/с - средняя за 10 мин, порывы в срок и между сроками (в фигурных скобках) и направление, откуда дует ветер: С - северный, СВ - северо-восточный, В - восточный, ЮВ - юго-восточный, Ю - южный, ЮЗ - юго-западный, З - западный, СЗ - северо-западный.
Видимость - горизонтальная дальность видимости в метрах или километрах. При видимости от 1 до 10 км при отсутствии осадков обычно наблюдается дымка, при ухудшении видимости до 1 км и менее - туман. В сухую погоду видимость может ухудшаться дымом, пылью или мглою.
Явления - указаны атмосферные явления, наблюдавшиеся в срок или в последний час перед сроком; фигурными скобками обозначены явления, наблюдавшиеся между сроками (за 1-3 часа до срока); квадратными скобками обозначены град или гололедные отложения с указанием их диаметра в мм.
Облачность - указаны через наклонную черту общая и нижняя облачность в баллах и высота нижней границы облаков в метрах; квадратными скобками обозначены формы облаков: Ci - перистые, Cs - перисто-слоистые, Cc - перисто-кучевые, Ac - высококучевые, As - высокослоистые, Sc - слоисто-кучевые, Ns - слоисто-дождевые, Cu - кучевые, Cb - кучево-дождевые. Подробнее классификацию облаков см. в Атласе облаков (PDF).
T - Температура воздуха - температура, измеренная на высоте 2 м над землей.
Td - Температура точки росы - температура, при понижении до которой содержащийся в воздухе водяной пар достигнет насыщения.
f - Относительная влажность воздуха - влажноcть воздуха, измеренная на высоте 2 м над землей.
Te - Эффективная температура - температура, которую ощущает одетый по сезону человек в тени. Характеристика душности погоды. При расчете учитывается влияние влажности воздуха и скорости ветра на теплоощущения человека.
Tes - Эффективная температура на солнце - температура, которую ощущает человек, с поправкой на солнечный нагрев. Характеристика знойности погоды. Зависит от высоты солнца над горизонтом, облачности и скорости ветра. Ночью, в пасмурную погоду, а также при ветре 12 м/с и более поправка равна нулю.
P - Атмосферное давление - приведенное к уровню моря атмосферное давление.
Po - Атмосферное давление - измеренное на уровне метеостанции атмосферное давление.
Tmin - Минимальная температура - минимум температуры воздуха на высоте 2 м над землей.
Tmax - Максимальная температура - максимум температуры воздуха на высоте 2 м над землей.
R - Количество осадков - Количество выпавших осадков за период времени, мм. При наведении курсора мыши на число - период времени, за который выпало указанное количество осадков.
R24 - Количество осадков - Количество выпавших осадков за 24 часа, мм.
S - Снежный покров - Высота снежного покрова, см. При наведении курсора мыши на число - состояние снежного покрова и степень покрытия местности в баллах.